Вернуться в каталог

KUIPER-00251

АктивенСвязьLEO
NORAD 67156·PAYLOAD·🇺🇸 United States

Запущен Dec 15, 2025 с Cape Canaveral Space Force Station

Loading…

Ближайшие Пролёты (ближайшие 24 часа)

TLE

СвежийSource: CelesTrak SupGP

Эпоха: Sep 14, 2026, 20:04 UTC

1 67156C 25301Z   26257.83623843  .00001373  00000+0  17968-3 0  2579
2 67156  51.8998 301.7614 0000412  65.3407 211.0027 14.79929031    10

Отслеживайте KUIPER-00251 в реальном времени с AllMySat

Download on the App Store